Total_Precipitation_Accumulation
2.00 2.55 3.15 3.67 4.32 5.01 5.48 5.39 4.72 4.07 3.34 2.74 2.19 1.95 1.76 1.53 1.32 1.20 1.04 0.95 0.83 0.76 0.71 0.61 0.63 0.53 0.54 0.58 0.57 0.65 0.72 0.74 0.79 0.93 0.97 0.83 0.75 0.78 0.79 0.74 0.80 0.84 0.95
1.94 2.61 3.18 3.43 3.39 3.55 3.67 3.19 2.93 2.71 2.23 1.94 1.71 1.48 1.41 1.20 0.99 0.92 0.86 0.67 0.62 0.63 0.57 0.62 0.56 0.53 0.56 0.51 0.51 0.57 0.63 0.65 0.66 0.76 0.84 0.80 0.80 0.76 0.59 0.67 0.68 0.73 0.90
2.03 2.47 2.62 2.64 2.53 2.46 2.35 2.02 1.85 1.95 1.81 1.74 1.62 1.47 1.45 1.32 1.06 0.85 0.76 0.59 0.48 0.49 0.55 0.58 0.59 0.57 0.49 0.48 0.51 0.48 0.52 0.53 0.52 0.57 0.68 0.74 0.75 0.68 0.59 0.58 0.58 0.66 0.78
1.98 1.93 1.56 1.41 1.55 1.61 1.63 1.77 1.75 1.72 1.59 1.55 1.30 1.08 0.97 0.86 0.75 0.69 0.63 0.60 0.49 0.44 0.44 0.48 0.57 0.54 0.47 0.52 0.39 0.38 0.44 0.49 0.43 0.42 0.48 0.48 0.56 0.65 0.69 0.60 0.57 0.61 0.61
1.06 0.83 0.71 0.75 0.97 1.19 1.41 1.74 1.75 1.60 1.44 1.36 1.29 1.25 1.12 1.03 0.86 0.76 0.76 0.69 0.62 0.52 0.41 0.39 0.46 0.50 0.51 0.58 0.48 0.47 0.42 0.41 0.37 0.36 0.42 0.41 0.38 0.43 0.57 0.65 0.61 0.57 0.46
0.47 0.47 0.52 0.68 0.88 1.05 1.15 1.33 1.45 1.55 1.52 1.51 1.45 1.33 1.23 1.15 1.01 0.86 0.76 0.68 0.62 0.58 0.53 0.50 0.55 0.56 0.52 0.54 0.51 0.52 0.49 0.47 0.44 0.35 0.36 0.50 0.46 0.36 0.43 0.47 0.54 0.52 0.36
0.32 0.44 0.47 0.59 0.64 0.75 0.80 0.88 0.98 1.13 1.20 1.25 1.30 1.27 1.23 1.15 1.01 0.89 0.76 0.69 0.56 0.50 0.51 0.53 0.59 0.60 0.59 0.54 0.49 0.48 0.51 0.56 0.57 0.44 0.34 0.36 0.46 0.41 0.36 0.37 0.36 0.42 0.39
0.15 0.19 0.23 0.29 0.36 0.49 0.60 0.66 0.72 0.76 0.76 0.78 0.91 1.03 1.01 0.97 0.90 0.92 0.76 0.67 0.62 0.57 0.57 0.53 0.51 0.53 0.53 0.51 0.48 0.41 0.41 0.48 0.55 0.55 0.56 0.50 0.38 0.45 0.40 0.34 0.39 0.47 0.53
0.07 0.08 0.11 0.17 0.26 0.32 0.42 0.52 0.55 0.57 0.60 0.63 0.71 0.75 0.78 0.82 0.84 0.82 0.69 0.60 0.62 0.60 0.58 0.51 0.46 0.44 0.47 0.50 0.50 0.44 0.43 0.43 0.40 0.45 0.59 0.60 0.46 0.42 0.42 0.40 0.46 0.64 0.65
0.06 0.06 0.09 0.13 0.19 0.23 0.33 0.45 0.47 0.48 0.54 0.59 0.64 0.61 0.68 0.72 0.76 0.74 0.67 0.60 0.59 0.58 0.57 0.51 0.46 0.43 0.42 0.44 0.47 0.46 0.49 0.53 0.51 0.48 0.55 0.66 0.66 0.59 0.55 0.53 0.57 0.70 0.72
0.09 0.10 0.08 0.10 0.13 0.17 0.24 0.33 0.40 0.42 0.42 0.47 0.55 0.61 0.64 0.72 0.76 0.74 0.73 0.65 0.62 0.60 0.57 0.55 0.55 0.48 0.42 0.43 0.46 0.47 0.50 0.55 0.62 0.66 0.65 0.65 0.75 0.83 0.76 0.71 0.71 0.75 0.82
0.14 0.16 0.11 0.12 0.10 0.14 0.20 0.26 0.30 0.32 0.34 0.41 0.51 0.55 0.59 0.65 0.75 0.72 0.71 0.73 0.71 0.67 0.63 0.59 0.57 0.48 0.43 0.45 0.44 0.42 0.46 0.56 0.67 0.80 0.93 0.93 0.86 0.85 0.81 0.79 0.80 0.86 1.00
0.18 0.16 0.12 0.13 0.11 0.12 0.16 0.21 0.25 0.30 0.34 0.40 0.50 0.58 0.55 0.57 0.65 0.71 0.71 0.72 0.73 0.75 0.76 0.68 0.63 0.57 0.55 0.56 0.53 0.48 0.48 0.50 0.55 0.67 0.92 1.11 1.27 1.19 0.99 0.88 0.83 0.89 1.00
0.13 0.14 0.13 0.13 0.17 0.17 0.20 0.24 0.30 0.32 0.37 0.43 0.50 0.57 0.57 0.60 0.66 0.70 0.72 0.74 0.73 0.78 0.83 0.82 0.79 0.73 0.67 0.64 0.62 0.65 0.65 0.61 0.58 0.63 0.71 0.82 1.03 1.21 1.25 1.11 0.96 0.92 1.00
0.19 0.17 0.18 0.18 0.19 0.23 0.28 0.35 0.44 0.48 0.51 0.64 0.71 0.77 0.76 0.77 0.79 0.82 0.80 0.83 0.83 0.84 0.95 0.99 0.97 0.92 0.86 0.74 0.76 0.84 0.76 0.77 0.73 0.69 0.67 0.62 0.68 0.82 0.98 1.06 1.14 1.11 1.06
0.24 0.22 0.23 0.24 0.23 0.26 0.33 0.40 0.49 0.56 0.69 0.95 1.06 1.06 1.10 1.10 1.07 1.03 0.97 1.01 1.08 1.16 1.19 1.16 1.15 1.11 0.94 0.90 0.85 0.86 0.85 0.89 0.88 0.83 0.76 0.65 0.58 0.58 0.66 0.77 0.90 1.05 1.09
0.30 0.30 0.31 0.36 0.35 0.37 0.41 0.43 0.47 0.58 0.75 0.92 1.05 1.13 1.17 1.18 1.21 1.21 1.22 1.22 1.27 1.30 1.31 1.32 1.31 1.27 1.23 1.11 0.91 0.84 0.83 0.85 0.89 0.94 0.94 0.73 0.55 0.58 0.60 0.66 0.68 0.73 0.82
0.38 0.41 0.41 0.43 0.46 0.49 0.49 0.55 0.67 0.77 0.87 0.97 1.07 1.22 1.26 1.29 1.30 1.26 1.22 1.19 1.20 1.18 1.15 1.11 1.09 1.14 1.10 1.01 0.81 0.73 0.70 0.75 0.78 0.81 0.81 0.76 0.63 0.59 0.60 0.63 0.61 0.59 0.58
0.44 0.47 0.53 0.55 0.61 0.67 0.68 0.69 0.79 0.93 1.04 1.09 1.21 1.31 1.37 1.43 1.36 1.26 1.21 1.13 1.10 1.01 0.94 0.90 0.90 0.94 0.97 0.92 0.76 0.71 0.66 0.69 0.68 0.68 0.71 0.73 0.66 0.59 0.48 0.50 0.51 0.51 0.50
0.47 0.52 0.61 0.65 0.69 0.79 0.83 0.84 0.87 0.94 1.01 1.05 1.12 1.19 1.26 1.38 1.42 1.35 1.30 1.24 1.21 1.11 1.05 1.00 0.97 0.95 1.00 1.00 0.82 0.74 0.69 0.73 0.74 0.83 0.85 0.79 0.69 0.59 0.44 0.44 0.49 0.48 0.45
0.45 0.48 0.55 0.65 0.70 0.78 0.85 0.90 0.90 0.88 0.88 0.86 0.85 0.92 1.04 1.15 1.21 1.24 1.24 1.29 1.29 1.23 1.11 0.98 0.90 0.88 0.94 1.03 0.88 0.75 0.69 0.74 0.81 0.87 0.94 0.89 0.74 0.54 0.42 0.38 0.39 0.37 0.40
0.40 0.44 0.50 0.58 0.66 0.76 0.89 0.97 0.93 0.89 0.88 0.89 0.91 0.96 1.02 1.01 0.98 1.04 1.07 1.14 1.20 1.17 1.08 0.92 0.80 0.76 0.74 0.73 0.74 0.60 0.53 0.58 0.68 0.79 0.93 0.95 0.78 0.58 0.43 0.34 0.30 0.28 0.28
0.36 0.35 0.39 0.48 0.60 0.77 0.91 1.01 0.98 1.00 1.01 1.00 1.02 1.05 1.07 1.06 1.05 1.04 1.02 1.01 0.99 0.90 0.81 0.72 0.72 0.71 0.67 0.60 0.53 0.44 0.36 0.38 0.52 0.66 0.89 0.98 0.86 0.72 0.57 0.47 0.41 0.34 0.29
0.31 0.31 0.33 0.41 0.52 0.60 0.68 0.80 0.83 0.88 0.95 0.95 0.89 0.82 0.82 0.83 0.87 0.91 0.90 0.91 0.88 0.83 0.77 0.71 0.72 0.70 0.65 0.58 0.54 0.49 0.39 0.38 0.50 0.57 0.71 0.85 0.90 0.83 0.76 0.66 0.53 0.43 0.38
0.35 0.37 0.38 0.42 0.46 0.51 0.56 0.63 0.71 0.79 0.89 0.93 0.88 0.84 0.80 0.79 0.79 0.82 0.85 0.81 0.80 0.73 0.67 0.65 0.70 0.69 0.66 0.59 0.51 0.55 0.56 0.54 0.58 0.59 0.70 0.85 0.96 0.97 0.94 0.90 0.79 0.68 0.60
0.41 0.47 0.48 0.48 0.46 0.48 0.54 0.59 0.67 0.77 0.89 0.91 0.82 0.79 0.80 0.80 0.79 0.77 0.79 0.77 0.65 0.63 0.59 0.59 0.61 0.63 0.58 0.49 0.39 0.39 0.41 0.40 0.41 0.44 0.61 0.77 0.94 1.06 1.10 1.13 1.07 0.95 0.85